FW0689 Weather Reports


Display with metric or nautical units.
time (UTC)temp
F
wind
direction
speed
MPH
gust
MPH
rain 1hr
in
rain 24hr
in
rain mn
in
humidity
%
barometer
mb
20260906002034 51 270 0.0 0.0 0.00 0.00 0.00 45 1031.0
20260906001034 51 268 0.0 0.0 0.00 0.00 0.00 45 1031.0
20260906000036 51 247 0.0 0.0 0.00 0.00 0.00 45 1030.7
20260905234034 51 234 0.0 0.0 0.00 0.00 0.00 45 1030.7
20260905233035 51 247 0.0 0.0 0.00 0.00 0.00 43 1030.7
20260905232036 51 270 0.0 0.0 0.00 0.00 0.00 44 1030.8
20260905231035 52 270 0.0 0.0 0.00 0.00 0.00 43 1030.5
20260905230035 52 270 0.0 0.0 0.00 0.00 0.00 44 1030.3
20260905200456 57 273 0.0 0.0 0.00 0.00 0.00 42 1029.7
20260905195549 57 273 0.0 0.0 0.00 0.00 0.00 42 1029.7
20260905194645 57 273 0.0 0.0 0.00 0.00 0.00 42 1029.7
20260905193722 57 273 0.0 0.0 0.00 0.00 0.00 42 1029.7
20260905191918 58 271 0.0 0.0 0.00 0.00 0.00 42 1029.2
20260905180319 63 279 0.0 0.0 0.00 0.00 0.00 40 1022.7
20260905164758 63 277 0.0 0.0 0.00 0.00 0.00 41 1022.8
20260905135252 63 259 0.0 0.0 0.00 0.00 0.00 41 1022.5
20260905135245 63 249 0.0 0.0 0.00 0.00 0.00 41 1022.5
20260905114056 63 249 0.0 0.0 0.00 0.00 0.00 41 1022.5
20260905105245 63 258 0.0 0.0 0.00 0.00 0.00 40 1022.5
20260905093605 63 248 0.0 0.0 0.00 0.00 0.00 41 1022.3
20260905092700 60 241 0.0 0.0 0.00 0.00 0.00 42 1021.7
20260905075241 56 232 0.0 0.0 0.00 0.00 0.00 44 1021.2
20260905072431 55 219 0.0 0.0 0.00 0.00 0.00 44 1021.0